Flag for Malaysia Weather past 2 weeks in Johor Bahru, Malaysia

Now
81 °F

Scattered clouds.


Feels Like: 87 °F
Forecast: 77 / 89 °F
Wind: 2 mph from Northeast

Location: Singapore / Paya Lebar

Current Time: Mar 30, 2015 at 8:30:09 AM

Latest Report: Mar 30, 2015 at 8:00 AM


Visibility: 5 mi

Pressure: 29.86 "Hg

Humidity: 89%

Dew point: 77 °F

Location of Johor BahruLocation

Historic Weather in Johor Bahru — Graph

°F

Johor Bahru temperature yesterday

Maximum temperature yesterday: 84 °F (at 10:00 AM)
Minimum temperature yesterday: 77 °F (at 1:00 PM)
Average temperature yesterday: 81 °F

Past Weeks' High & Low Weather Summary

 TemperatureHumidityPressure
High93 °F (Mar 23, 2:00 PM)100% (Mar 22, 6:00 PM)29.98 "Hg (Mar 22, 6:00 PM)
Low73 °F (Mar 22, 6:00 PM)52% (Mar 25, 4:00 PM)29.74 "Hg (Mar 18, 4:00 PM)
Average84 °F75%29.85 "Hg
* Reported Mar 15 7:00 AM — Mar 30 7:00 AM, Johor Bahru, Weather by CustomWeather, © 2015

Note: Actual official high and low records may vary slightly from our data, if they occured in-between our weather recording intervals... More about our weather records

Advertising

Johor Bahru weather history for previous 24 hours

 ConditionsComfort  
Time TempWeatherWind HumidityBarometerVisibility
7:00 AM
Mon, Mar 30
79 °FPassing clouds.2 mph94%29.83 "Hg5 mi
6:00 AM79 °FPassing clouds.6 mph94%29.83 "Hg6 mi
5:00 AM79 °FPartly cloudy.1 mph94%29.80 "HgN/A
11:00 PM
Sun, Mar 29
81 °FPartly cloudy.2 mph89%29.86 "HgN/A
10:00 PM82 °FPassing clouds.5 mph84%29.86 "HgN/A
9:00 PM82 °FPassing clouds.1 mph84%29.83 "HgN/A
8:00 PM82 °FPartly cloudy.2 mph84%29.83 "HgN/A
7:00 PM82 °FBroken clouds.3 mph84%29.80 "HgN/A
6:00 PM84 °FBroken clouds.7 mph79%29.80 "HgN/A
5:00 PM82 °FPartly sunny.5 mph84%29.77 "HgN/A
4:00 PM81 °FScattered clouds.2 mph89%29.80 "HgN/A
3:00 PM79 °FPartly sunny.1 mph94%29.80 "HgN/A
2:00 PM77 °FScattered showers. Partly sunny.6 mph94%29.86 "HgN/A
1:00 PM77 °FThunderstorms. Broken clouds.5 mph94%29.89 "Hg3 mi
12:00 PM82 °FThunderstorms. Partly sunny.3 mph84%29.89 "Hg4 mi
11:00 AM82 °FLots of rain. Broken clouds.7 mph89%29.89 "Hg1 mi
10:00 AM84 °FSprinkles. Scattered clouds.8 mph79%29.89 "HgN/A
9:00 AM82 °FPartly sunny.8 mph84%29.86 "HgN/A
8:00 AM81 °FPartly sunny.1 mph89%29.86 "HgN/A
Weather by CustomWeather, © 2015

See weather overviewHow to use our weather pages